New Bedford, MA

2:07 AM EDT on June 26, 2017 (GMT -0400)
New Bedford Regional

Weather History for KEWB - October, 2013

Change the Weather History Date:

Monday, October 7, 2013

  Actual Average Record
Temperature  
Mean Temperature 68 °F -  
Max Temperature 75 °F 66 °F 81 °F (1963)
Min Temperature 62 °F 49 °F 28 °F (1998)
Cooling Degree Days 4    
Growing Degree Days 18 (Base 50)    
Moisture  
Dew Point 67 °F    
Average Humidity 92    
Maximum Humidity 100    
Minimum Humidity 82    
Precipitation  
Precipitation 0.18 in - - ()
Sea Level Pressure  
Sea Level Pressure 29.98 in    
Wind  
Wind Speed 10 mph (South)    
Max Wind Speed 23 mph    
Max Gust Speed 33 mph    
Visibility 6 miles    
Events Rain    
Averages and records for this station are not official NWS values.
T = Trace of Precipitation, MM = Missing Value Source: NWS Daily Summary

Daily Weather History Graph

Daily Weather History Graph

Search for Another Location

Airport or City:

Trip Planner

Search our weather history database for the weather conditions in past years. The results will help you decide how hot, cold, wet, or windy it might be!

Date:

Astronomy

Oct. 07, 2013 Rise Set
Actual Time 6:47 AM EDT 6:15 PM EDT
Civil Twilight 6:19 AM EDT 6:42 PM EDT
Nautical Twilight 5:47 AM EDT 7:14 PM EDT
Astronomical Twilight 5:15 AM EDT 7:47 PM EDT
Moon 9:36 AM EDT (10/7) 7:54 PM EDT (10/7)
Length of Visible Light 12h 23m
Length of Day
11h 27m
Waxing Crescent, 8% of the Moon is Illuminated
Oct 7
Waxing Crescent
Oct 11
First Quarter
Oct 18
Full
Oct 26
Last Quarter
Nov 3
New

Hourly Weather History & Observations

Time (EDT) Temp. Dew Point Humidity Pressure Visibility Wind Dir Wind Speed Gust Speed Precip Events Conditions
12:32 AM 62.6 °F 60.8 °F 94% 30.10 in 10.0 mi Calm Calm - 0.00 in   Overcast
12:53 AM 63.0 °F 62.1 °F 97% 30.10 in 10.0 mi ESE 4.6 mph - 0.00 in   Overcast
1:53 AM 64.9 °F 64.0 °F 97% 30.09 in 8.0 mi SSE 5.8 mph - N/A   Overcast
2:53 AM 66.0 °F 64.0 °F 93% 30.07 in 7.0 mi SSE 9.2 mph - N/A   Overcast
3:53 AM 66.9 °F 64.9 °F 93% 30.06 in 6.0 mi SSE 8.1 mph - N/A   Overcast
4:53 AM 68.0 °F 66.9 °F 96% 30.05 in 4.0 mi SSE 6.9 mph - N/A   Overcast
5:00 AM 68.0 °F 66.2 °F 94% 30.05 in 4.0 mi SSE 8.1 mph - N/A   Overcast
5:53 AM 68.0 °F 66.9 °F 96% 30.04 in 2.0 mi South 9.2 mph - N/A   Overcast
6:00 AM 68.0 °F 66.2 °F 94% 30.04 in 1.2 mi South 10.4 mph - N/A   Overcast
6:24 AM 68.0 °F 68.0 °F 100% 30.04 in 0.8 mi South 9.2 mph - N/A   Overcast
6:36 AM 68.0 °F 68.0 °F 100% 30.04 in 1.5 mi South 9.2 mph 18.4 mph N/A   Overcast
6:53 AM 68.0 °F 68.0 °F 100% 30.04 in 0.8 mi South 11.5 mph - N/A   Overcast
7:46 AM 68.0 °F 68.0 °F 100% 30.04 in 1.5 mi South 10.4 mph - N/A   Overcast
7:53 AM 68.0 °F 68.0 °F 100% 30.04 in 2.0 mi SSE 10.4 mph - N/A   Overcast
8:13 AM 68.0 °F 68.0 °F 100% 30.03 in 1.5 mi SSE 12.7 mph - N/A   Overcast
8:32 AM 68.0 °F 68.0 °F 100% 30.03 in 2.0 mi SSE 12.7 mph 19.6 mph N/A   Overcast
8:53 AM 68.0 °F 66.9 °F 96% 30.03 in 2.5 mi SSE 15.0 mph 23.0 mph N/A   Overcast
9:12 AM 69.8 °F 68.0 °F 94% 30.02 in 3.0 mi SSE 16.1 mph 23.0 mph 0.00 in   Overcast
9:23 AM 69.8 °F 68.0 °F 94% 30.02 in 2.5 mi SSE 16.1 mph 24.2 mph 0.00 in   Overcast
9:39 AM 69.8 °F 68.0 °F 94% 30.02 in 1.2 mi SSE 12.7 mph 24.2 mph 0.06 in Rain Heavy Rain
9:49 AM 69.8 °F 68.0 °F 94% 30.02 in 3.0 mi South 11.5 mph - 0.06 in Rain Light Rain
9:53 AM 70.0 °F 68.0 °F 93% 30.02 in 4.0 mi SSE 15.0 mph 21.9 mph 0.06 in Rain Light Rain
10:06 AM 69.8 °F 69.8 °F 100% 30.01 in 4.0 mi South 12.7 mph 21.9 mph 0.00 in   Overcast
10:53 AM 72.0 °F 66.9 °F 84% 30.00 in 10.0 mi South 17.3 mph 31.1 mph 0.01 in   Overcast
11:06 AM 71.6 °F 66.2 °F 83% 30.00 in 10.0 mi South 15.0 mph 26.5 mph N/A   Overcast
11:53 AM 73.9 °F 68.0 °F 82% 29.98 in 10.0 mi South 19.6 mph 25.3 mph N/A   Mostly Cloudy
12:01 PM 73.4 °F 68.0 °F 83% 29.98 in 10.0 mi South 17.3 mph 26.5 mph N/A   Overcast
12:53 PM 73.0 °F 68.0 °F 84% 29.95 in 10.0 mi South 17.3 mph 27.6 mph N/A   Overcast
1:02 PM 75.2 °F 69.8 °F 83% 29.95 in 10.0 mi South 18.4 mph 29.9 mph N/A   Overcast
1:53 PM 73.0 °F 68.0 °F 84% 29.93 in 10.0 mi South 19.6 mph 29.9 mph 0.00 in Rain Light Rain
2:00 PM 73.4 °F 69.8 °F 88% 29.92 in 10.0 mi South 18.4 mph 27.6 mph 0.00 in   Overcast
2:53 PM 73.9 °F 70.0 °F 87% 29.92 in 10.0 mi South 17.3 mph 25.3 mph 0.11 in   Mostly Cloudy
3:53 PM 73.9 °F 69.1 °F 85% 29.90 in 10.0 mi South 23.0 mph 33.4 mph N/A   Mostly Cloudy
4:53 PM 72.0 °F 68.0 °F 87% 29.90 in 10.0 mi South 17.3 mph 31.1 mph N/A   Overcast
5:53 PM 71.1 °F 66.9 °F 87% 29.90 in 10.0 mi South 16.1 mph 26.5 mph N/A   Overcast
6:53 PM 72.0 °F 66.9 °F 84% 29.89 in 10.0 mi South 19.6 mph 33.4 mph N/A   Overcast
7:53 PM 71.1 °F 68.0 °F 90% 29.89 in 10.0 mi South 16.1 mph 27.6 mph N/A   Overcast
8:53 PM 71.1 °F 66.9 °F 87% 29.86 in 10.0 mi South 18.4 mph - 0.00 in   Mostly Cloudy
9:36 PM 69.8 °F 66.2 °F 88% 29.85 in 10.0 mi SSW 16.1 mph - N/A   Mostly Cloudy
9:53 PM 70.0 °F 66.9 °F 90% 29.87 in 9.0 mi WSW 11.5 mph - N/A   Overcast
10:41 PM 69.8 °F 66.2 °F 88% 29.88 in 9.0 mi SW 8.1 mph - 0.00 in Rain Light Rain
10:53 PM 69.1 °F 66.0 °F 90% 29.88 in 10.0 mi WSW 6.9 mph - 0.00 in   Overcast
11:53 PM 68.0 °F 64.9 °F 90% 29.88 in 9.0 mi West 5.8 mph - 0.00 in Rain Light Rain